Rogers, AR

8:13 PM CDT on August 31, 2016 (GMT -0500)
Rogers Municipal-Carter

Weather History for KROG - April, 2014

Change the Weather History Date:

Sunday, April 13, 2014

  Actual Average Record
Temperature  
Mean Temperature 62 °F -  
Max Temperature 72 °F 64 °F 84 °F (2006)
Min Temperature 48 °F 45 °F 28 °F (1997)
Degree Days  
Heating Degree Days 2    
Growing Degree Days 12 (Base 50)    
Moisture  
Dew Point 55 °F    
Average Humidity 76    
Maximum Humidity 94    
Minimum Humidity 55    
Precipitation  
Precipitation 0.32 in - - ()
Sea Level Pressure  
Sea Level Pressure 29.65 in    
Wind  
Wind Speed 19 mph (South)    
Max Wind Speed 36 mph    
Max Gust Speed 52 mph    
Visibility 10 miles    
Events Rain , Thunderstorm    
Averages and records for this station are not official NWS values.
T = Trace of Precipitation, MM = Missing Value Source: NWS Daily Summary

Daily Weather History Graph

Daily Weather History Graph

Search for Another Location

Airport or City:

Trip Planner

Search our weather history database for the weather conditions in past years. The results will help you decide how hot, cold, wet, or windy it might be!

Date:

Astronomy

Apr. 13, 2014 Rise Set
Actual Time 6:45 AM CDT 7:48 PM CDT
Civil Twilight 6:19 AM CDT 8:15 PM CDT
Nautical Twilight 5:47 AM CDT 8:46 PM CDT
Astronomical Twilight 5:15 AM CDT 9:19 PM CDT
Moon 6:29 PM CDT (4/13) 5:41 AM CDT (4/13)
Length of Visible Light 13h 56m
Length of Day
13h 03m
Waxing Gibbous, 97% of the Moon is Illuminated
Apr 13
Waxing Gibbous
Apr 15
Full
Apr 22
Last Quarter
Apr 29
New
May 6
First Quarter

Hourly Weather History & Observations

Time (CDT) Temp. Dew Point Humidity Pressure Visibility Wind Dir Wind Speed Gust Speed Precip Events Conditions
12:57 AM 68.0 °F 57.0 °F 68% 29.72 in 10.0 mi South 18.4 mph 26.5 mph N/A   Clear
1:57 AM 66.9 °F 57.0 °F 70% 29.70 in 10.0 mi South 17.3 mph 25.3 mph N/A   Clear
2:57 AM 66.9 °F 57.0 °F 70% 29.69 in 10.0 mi South 16.1 mph 23.0 mph N/A   Clear
3:57 AM 68.0 °F 57.0 °F 68% 29.67 in 10.0 mi South 21.9 mph 31.1 mph N/A   Clear
4:57 AM 66.9 °F 57.9 °F 73% 29.66 in 10.0 mi South 20.7 mph 33.4 mph N/A   Clear
5:16 AM 66.2 °F 57.2 °F 73% 29.71 in 10.0 mi South 21.9 mph 28.8 mph N/A   Mostly Cloudy
5:57 AM 66.9 °F 57.9 °F 73% 29.68 in 10.0 mi South 20.7 mph 29.9 mph N/A   Mostly Cloudy
6:27 AM 66.2 °F 57.2 °F 73% 29.70 in 10.0 mi South 21.9 mph 29.9 mph N/A   Mostly Cloudy
6:57 AM 66.0 °F 57.9 °F 75% 29.69 in 10.0 mi SSW 20.7 mph 29.9 mph N/A   Clear
7:57 AM 66.0 °F 57.0 °F 73% 29.70 in 10.0 mi South 24.2 mph 29.9 mph N/A   Clear
8:57 AM 66.0 °F 55.9 °F 70% 29.71 in 10.0 mi SSW 18.4 mph 27.6 mph N/A   Clear
9:57 AM 66.0 °F 55.9 °F 70% 29.72 in 10.0 mi South 18.4 mph 27.6 mph 0.00 in Rain Light Rain
10:57 AM 64.9 °F 57.0 °F 75% 29.73 in 9.0 mi South 15.0 mph - 0.00 in Rain Light Rain
11:57 AM 66.0 °F 57.0 °F 73% 29.69 in 10.0 mi South 26.5 mph 33.4 mph 0.00 in   Scattered Clouds
12:57 PM 66.0 °F 57.0 °F 73% 29.63 in 10.0 mi SSE 17.3 mph 25.3 mph 0.00 in   Scattered Clouds
1:57 PM 68.0 °F 57.0 °F 68% 29.62 in 10.0 mi SSE 23.0 mph 34.5 mph N/A   Mostly Cloudy
2:13 PM 66.2 °F 57.2 °F 73% 29.65 in 10.0 mi SSE 20.7 mph 28.8 mph N/A   Overcast
2:57 PM 66.0 °F 57.9 °F 75% 29.59 in 10.0 mi SSE 23.0 mph 29.9 mph N/A   Mostly Cloudy
3:10 PM 66.2 °F 57.2 °F 73% 29.62 in 10.0 mi SSE 18.4 mph 26.5 mph N/A   Scattered Clouds
3:16 PM 66.2 °F 57.2 °F 73% 29.61 in 10.0 mi SSE 18.4 mph 29.9 mph N/A   Mostly Cloudy
3:57 PM 66.9 °F 59.0 °F 76% 29.55 in 10.0 mi South 18.4 mph 26.5 mph N/A   Overcast
4:20 PM 68.0 °F 59.0 °F 73% 29.56 in 10.0 mi South 17.3 mph 27.6 mph N/A   Scattered Clouds
4:57 PM 71.1 °F 59.0 °F 66% 29.50 in 10.0 mi SSE 18.4 mph 31.1 mph N/A   Clear
5:57 PM 72.0 °F 55.0 °F 55% 29.52 in 10.0 mi South 23.0 mph 32.2 mph N/A   Clear
6:57 PM 69.1 °F 57.0 °F 65% 29.57 in 10.0 mi SSW 17.3 mph - N/A   Mostly Cloudy
7:17 PM 64.4 °F 51.8 °F 64% 29.66 in 10.0 mi WNW 35.7 mph 51.8 mph 0.00 in Rain Light Rain
7:32 PM 57.2 °F 51.8 °F 82% 29.69 in 9.0 mi West 17.3 mph 27.6 mph 0.06 in Rain , Thunderstorm Heavy Thunderstorms and Rain
7:57 PM 55.9 °F 52.0 °F 87% 29.63 in 10.0 mi Variable 6.9 mph - 0.18 in Rain , Thunderstorm Light Rain
8:42 PM 55.4 °F 53.6 °F 94% 29.65 in 10.0 mi South 12.7 mph - 0.07 in Rain , Thunderstorm Rain
8:57 PM 55.0 °F 53.1 °F 93% 29.62 in 10.0 mi SSE 15.0 mph - 0.10 in Rain , Thunderstorm Light Rain
9:25 PM 55.4 °F 53.6 °F 94% 29.62 in 10.0 mi SSE 19.6 mph 26.5 mph 0.04 in Rain Light Rain
9:43 PM 57.2 °F 51.8 °F 82% 29.57 in 10.0 mi SE 23.0 mph 31.1 mph 0.04 in Rain , Thunderstorm Light Rain
9:57 PM 57.9 °F 50.0 °F 75% 29.58 in 10.0 mi SW 6.9 mph - 0.04 in Rain , Thunderstorm Light Rain
10:08 PM 57.2 °F 50.0 °F 77% 29.61 in 10.0 mi SW 16.1 mph 21.9 mph N/A   Mostly Cloudy
10:45 PM 55.4 °F 51.8 °F 88% 29.68 in 10.0 mi WSW 16.1 mph 25.3 mph N/A   Mostly Cloudy
10:52 PM 55.4 °F 51.8 °F 88% 29.69 in 10.0 mi WSW 13.8 mph 25.3 mph N/A   Mostly Cloudy
10:57 PM 55.9 °F 52.0 °F 87% 29.67 in 10.0 mi WSW 20.7 mph 27.6 mph N/A   Mostly Cloudy
11:00 PM 55.4 °F 51.8 °F 88% 29.69 in 10.0 mi West 18.4 mph 27.6 mph N/A   Overcast
11:14 PM 53.6 °F 51.8 °F 94% 29.70 in 6.0 mi West 19.6 mph 25.3 mph N/A   Overcast
11:57 PM 48.9 °F 46.9 °F 93% 29.73 in 4.0 mi West 13.8 mph 23.0 mph N/A   Overcast